#timestamp,LO_Frequency,Hit 
1504918815.0,286047007.5,N
1504918815.9,286047007.5,N
1504918835.8,286047004.8,N
1504918855.6,286047006.2,N
1504918875.4,286047008.6,N
1504918895.3,286047007.8,N
1504918915.1,286047006.9,N
1504918916.0,286047006.9,N
1504918935.8,286047009.2,N
1504918955.7,286047009.0,N
1504918975.5,286047004.8,N
1504918995.3,286047000.7,N
1504919015.2,286046995.7,N
1504919035.9,286046992.7,N
1504919055.7,286046989.1,N
1504919075.5,286046989.5,N
1504919095.4,286046985.8,N
1504919115.2,286046986.2,N
1504919135.0,286046982.1,N
1504919135.9,286046982.1,N
1504919155.8,286046986.8,N
1504919175.6,286046984.9,N
1504919195.4,286046984.2,N
1504919215.3,286046985.0,N
1504919235.1,286046982.1,N
1504919236.0,286046982.1,N
1504919255.8,286046983.0,N
1504919275.7,286046982.3,N
1504919295.5,286046981.0,N
1504919315.3,286046978.0,N
1504919335.2,286046978.2,N
1504919355.9,286046977.2,N
1504919375.7,286046975.1,N
1504919395.6,286046976.9,N
1504919415.4,286046975.1,N
1504919435.2,286046977.2,N
1504919455.0,286046978.7,N
1504919455.9,286046978.7,N
1504919475.8,286046977.9,N
1504919495.6,286046977.4,N
1504919515.4,286046981.9,N
1504919535.3,286046982.0,P
1504919555.1,286046997.8,P
1504919575.8,286046995.7,N
1504919595.7,286046995.9,N
1504919615.5,286046996.4,N
1504919635.3,286046991.9,N
1504919655.2,286046992.3,N
1504919675.9,286046992.6,N
1504919695.7,286046993.3,N
1504919715.6,286046992.3,N
1504919735.4,286046991.7,N
1504919755.2,286046990.4,N
1504919775.1,286046991.1,N
1504919776.0,286046991.1,N
1504919795.8,286046990.8,N
1504919815.6,286046990.1,N
1504919835.5,286046992.0,N
1504919855.3,286046992.2,N
1504919875.1,286046992.4,N
1504919895.8,286046990.3,N
1504919915.7,286046991.5,N
1504919935.5,286046986.3,P
1504919955.4,286046999.2,N
1504919975.2,286047003.1,N
1504919995.0,286047006.7,N
1504919995.9,286047006.7,N
1504920015.8,286047007.9,N
1504920035.6,286047009.5,N
1504920055.4,286047012.6,N
1504920075.2,286047014.6,N
1504920095.1,286047023.5,N
1504920096.0,286047023.5,N
1504920115.8,286047022.8,N
1504920135.6,286047020.5,N
1504920155.5,286047019.0,N
1504920175.3,286047019.7,N
1504920195.1,286047026.3,N
1504920215.9,286047026.2,N
1504920235.7,286047026.6,N
1504920255.5,286047027.3,N
1504920275.4,286047023.9,N
1504920295.2,286047026.3,N
1504920315.0,286047029.0,N
1504920315.9,286047029.0,N
1504920335.8,286047032.9,N
1504920355.6,286047033.0,N
1504920375.4,286047030.1,N
1504920395.2,286047032.8,N
1504920415.1,286047032.0,N
1504920416.0,286047032.0,N
1504920435.8,286047027.4,N
1504920455.6,286047028.7,N
1504920475.5,286047031.2,P
1504920495.3,286047010.7,N
1504920515.1,286047012.2,N
1504920535.9,286047011.3,N
1504920555.7,286047007.7,N
1504920575.5,286047007.9,N
1504920595.4,286047008.4,N
1504920615.2,286047008.3,N
1504920635.0,286047008.4,N
1504920635.9,286047008.4,N
1504920655.8,286047011.7,N
1504920675.6,286047009.9,N
1504920695.4,286047008.9,N
1504920715.3,286047007.5,N
1504920735.1,286047009.0,N
1504920736.0,286047009.0,N
1504920755.8,286047009.0,N
1504920775.7,286047012.3,N
1504920795.5,286047010.8,N
1504920815.3,286047010.0,N
1504920835.2,286047013.9,N
1504920855.9,286047015.6,N
1504920875.7,286047013.1,N
1504920895.5,286047011.4,N
1504920915.4,286047014.1,N
1504920935.2,286047013.3,N
1504920955.0,286047006.3,N
1504920955.9,286047006.3,N
1504920975.8,286047005.5,N
1504920995.6,286047000.8,N
1504921015.4,286046993.8,N
1504921035.3,286046994.5,N
1504921055.1,286046994.2,N
1504921056.0,286046994.2,N
1504921075.8,286046990.4,N
1504921095.7,286046993.0,N
1504921115.5,286046988.6,N
1504921135.3,286046992.0,N
1504921155.2,286046995.5,N
1504921175.9,286046994.3,N
1504921195.7,286046990.1,N
1504921215.5,286046992.0,N
1504921235.4,286046991.7,N
1504921255.2,286046996.4,N
1504921275.0,286046996.8,N
1504921275.9,286046996.8,N
1504921295.8,286046995.6,N
1504921315.6,286046995.2,N
1504921335.4,286046993.8,N
1504921355.3,286046990.2,N
1504921375.1,286046991.6,N
1504921395.8,286046988.8,N
1504921415.7,286046986.9,N
1504921435.5,286046985.4,N
1504921455.3,286046985.9,N
1504921475.2,286046982.7,N
1504921495.9,286046983.2,P
1504921515.7,286046987.6,N
1504921535.6,286046991.3,N
1504921555.4,286046992.0,N
1504921575.2,286046992.6,N
1504921595.1,286046994.8,N
1504921596.0,286046994.8,N
1504921615.8,286046987.5,P
1504921635.6,286047001.2,N
1504921655.5,286047001.6,N
1504921675.3,286046999.8,N
1504921695.1,286046998.7,N
1504921715.9,286047000.8,N
1504921735.7,286047002.7,N
1504921755.5,286046997.7,N
1504921775.4,286046994.2,N
1504921795.2,286046988.9,N
1504921815.0,286046989.4,N
1504921815.9,286046989.4,N
1504921835.7,286046990.9,N
1504921855.6,286046997.6,N
1504921875.4,286046997.8,N
1504921895.2,286046995.0,N
1504921915.1,286046996.3,N
1504921916.0,286046996.3,N
1504921935.8,286047000.7,N
1504921955.6,286047007.6,N
1504921975.5,286047011.2,N
1504921995.3,286047016.6,N
1504922015.1,286047017.9,N
1504922035.9,286047020.0,N
1504922055.7,286047023.4,N
1504922075.5,286047023.8,N
1504922095.4,286047022.7,N
1504922115.2,286047023.3,N
1504922135.0,286047022.9,N
1504922135.9,286047022.9,N
1504922155.8,286047023.0,N
1504922175.6,286047020.5,N
1504922195.4,286047021.3,N
1504922215.2,286047022.6,N
1504922235.1,286047025.8,N
1504922236.0,286047025.8,N
1504922255.8,286047025.3,N
1504922275.6,286047028.0,N
1504922295.5,286047026.2,N
1504922315.3,286047026.3,N
1504922335.1,286047025.9,N
1504922355.9,286047026.3,N
1504922375.7,286047022.6,N
1504922395.5,286047021.0,N
